星链-33980 (STARLINK-33980)

导读

STARLINK-33980是美国SpaceX星链星座的一员,于2025年5月13日发射升空,该卫星延续星链项目设计,是低轨互联网卫星,承载着为全球提供高速宽带互联网接入服务的任务,进一步扩充了星链星座的卫星规模,强化了星座整体的覆盖能力与服务稳定性。

Basic Information
目录编号:
63930
目录名称:
STARLINK-33980
国际标识:
2025-098E
轨道中心:
EARTH
卫星名称:
星链-33980
卫星全名:
星链-33980 (STARLINK-33980)
卫星状态:
在轨 (已飞行397 天)
发射日期:
2025-05-13 UTC
国别 :
美国 (US)
星等 :
--
Orbit Information
数据来源 国际轨道数据 AOE轨道数据
星历时间 2026-06-14T04:39:17+0800
9小时前
查看轨道信息
2026-06-09T00:00:00+0800
5天前
查看轨道信息
半长轴 6950.182km 6950.183km
偏心率 0.000286 0.0002961
轨道倾角 70.002° 70.002°
近地点辐角 268.717° 274.778°
升交点赤经 32.153° 45.246°
平近点角 91.367° 157.183°
近地点 570.057km 569.988km
远地点 574.033km 574.104km
周期 96.107分钟 96.107分钟
每日圈数 14.983338 14.983332
Detailed Information
固有亮度:
5
最大亮度:
2.5
卫星平台:
Starlink V1.0
覆盖范围:
全球
运营商:
太空探索技术公司
运营商所在国:
美国
制造商(研发单位):
太空探索技术公司
制造商所在国:
美国
使用方式:
暂无
Satellite Introduction
Starlink 计划是 SpaceX 推出的全球卫星互联网项目,通过发射低轨道卫星,为全球尤其是偏远地区提供高速、低延迟的互联网服务。自 2019 年起,Starlink 已部署数千颗卫星,旨在缩小全球数字鸿沟,推动互联网普及。该项目还为军事、航空等行业提供通信支持,带来广泛经济效益。
2D Orbit Map
3D Orbit Map
Orbit Altitude Analysis Chart
Orbit Inclination Analysis Chart
Orbit Comprehensive Analysis Chart
View Comprehensive Chart